Flag for Norway Weather past 2 weeks in Kleppestø, Norway

Now
53 °F

Cool.


Feels Like: 53 °F
Forecast: 53 / 58 °F
Wind: 1 mph from Northwest

Location: Bergen / Florida

Current Time: Jul 7, 2015 at 2:36:15 AM

Latest Report: Jul 7, 2015 at 1:00 AM


Visibility: N/A

Pressure: 29.76 "Hg

Humidity: 78%

Dew point: 46 °F

Location of KleppestøLocation

Historic Weather in Kleppestø — Graph

°F

Kleppestø temperature yesterday

Maximum temperature yesterday: 59 °F (at 12:00 AM)
Minimum temperature yesterday: 53 °F (at 7:00 AM)
Average temperature yesterday: 55 °F

Past Weeks' High & Low Weather Summary

 TemperatureHumidityPressure
High85 °F (Jul 2, 5:00 PM)90% (Jun 29, 7:00 AM)30.29 "Hg (Jun 29, 7:00 AM)
Low46 °F (Jun 26, 6:00 AM)21% (Jul 2, 1:00 PM)29.69 "Hg (Jun 22, 8:00 PM)
Average60 °F69%29.99 "Hg
* Reported Jun 22 1:00 AM — Jul 7 1:00 AM, Kleppestø, Weather by CustomWeather, © 2015

Note: Actual official high and low records may vary slightly from our data, if they occured in-between our weather recording intervals... More about our weather records

Advertising

Kleppestø weather history for previous 24 hours

 ConditionsComfort  
Time TempWeatherWind HumidityBarometerVisibility
1:00 AM
Tue, Jul 7
53 °FCool.1 mph78%29.76 "HgN/A
12:00 AM53 °FCool.3 mph82%29.76 "HgN/A
10:00 PM
Mon, Jul 6
54 °FCool.2 mph86%29.75 "HgN/A
9:00 PM55 °FCool.2 mph85%29.73 "HgN/A
8:00 PM55 °FLow clouds.2 mph86%29.73 "Hg11 mi
7:00 PM55 °FCool.2 mph86%29.73 "HgN/A
6:00 PM54 °FCool.2 mph86%29.73 "HgN/A
5:00 PM54 °FLow clouds.3 mph86%29.73 "Hg7 mi
4:00 PM55 °FCool.5 mph86%29.73 "HgN/A
3:00 PM55 °FCool.1 mph86%29.72 "HgN/A
2:00 PM56 °FLight rain. Low clouds.3 mph87%29.71 "Hg1 mi
1:00 PM55 °FCool.7 mph82%29.71 "HgN/A
12:00 PM54 °FCool.3 mph86%29.71 "HgN/A
11:00 AM55 °FDrizzle. Low clouds.2 mph86%29.71 "Hg2 mi
10:00 AM54 °FCool.2 mph84%29.70 "HgN/A
9:00 AM54 °FCool.2 mph85%29.71 "HgN/A
8:00 AM54 °FLow clouds.1 mph88%29.71 "Hg16 mi
7:00 AM53 °FCool.1 mph88%29.72 "HgN/A
6:00 AM54 °FCool.1 mph88%29.73 "HgN/A
5:00 AM55 °FCool.2 mph88%29.74 "HgN/A
4:00 AM55 °FCool.1 mph88%29.76 "HgN/A
3:00 AM56 °FCool.2 mph88%29.77 "HgN/A
2:00 AM57 °FCool.2 mph87%29.77 "HgN/A
Weather by CustomWeather, © 2015

See weather overviewHow to use our weather pages